Regional Weather Roundup
Issued by NWS Newport/Morehead, NC

Current Version | Previous Version | Graphics & Text | Print | Product List | Glossary On
Versions: 1 2 3 4 5 6 7 8 9 10 11 12 13 14 15 16 17 18 19 20 21 22 23 24 25 26 27 28 29 30 31 32 33 34 35 36 37 38 39 40 41 42 43 44 45 46 47 48 49 50
175 ASUS42 KMHX 061713 RWRMHX WEATHER ROUNDUP FOR EASTERN NORTH CAROLINA NATIONAL WEATHER SERVICE NEWPORT/MOREHEAD CITY NC 1200 PM EST TUE DEC 06 2016 NOTE: "FAIR" INDICATES FEW OR NO CLOUDS BELOW 12,000 FEET WITH NO SIGNIFICANT WEATHER AND/OR OBSTRUCTIONS TO VISIBILITY NCZ015>017-031-032-045>047-102-103-061800- NORTH COAST CITY SKY/WX TMP DP RH WIND PRES REMARKS EDENTON LGT RAIN 56 54 92 E10G17 29.84F ELIZABETH CITY RAIN 54 53 97 E16 29.85F FOG KITTY HAWK LGT RAIN 57 57 100 E10 29.85F MANTEO RAIN 57 57 98 E8 29.87F $$ NCZ045>047-081-094-103-104-061800- CENTRAL COAST CITY SKY/WX TMP DP RH WIND PRES REMARKS FRISCO RAIN 63 61 93 SE22G29 29.81F VSB 3/4 $$ NCZ095-097-098-100-101-061800- SOUTHERN COAST CITY SKY/WX TMP DP RH WIND PRES REMARKS BEAUFORT LGT RAIN 65 64 97 MISG 29.75F FOG CEDAR ISLAND NOT AVBL JACKSONVILLE CLOUDY 59 59 100 NE5 29.75F PINEY ISLAND NOT AVBL WILMINGTON LGT RAIN 64 64 100 N9 29.73F FOG $$ NCZ011>013-027>030-043-044-078>080-089-090>093-098-061800- COASTAL PLAIN CITY SKY/WX TMP DP RH WIND PRES REMARKS AHOSKIE RAIN 48 47 97 NE7 29.84F CLINTON RAIN 50 50 100 E8 29.75F ELIZABETHTOWN RAIN 51 51 100 E7 29.72F GOLDSBORO LGT RAIN 52 52 100 NE5 29.76F GREENVILLE LGT RAIN 52 52 100 E9 29.82F HAVELOCK LGT RAIN 58 57 97 NE9 29.77F FOG KENANSVILLE LGT RAIN 52 50 93 CALM 29.79F FOG KINSTON RAIN 54 52 94 NE8 29.77F NEW BERN LGT RAIN 57 56 96 SE12 29.75F FOG RICHLANDS LGT RAIN 55 54 96 E8 29.76F ROCKY MOUNT LGT RAIN 48 48 100 NE7 29.81F FOG WASHINGTON DRIZZLE 53 52 96 E13 29.80F WHITEVILLE LGT RAIN 53 53 97 NE6 29.72F $$ AMZ130-135-150-152-154-156-158-170-250-252-270-ANZ085-086-088-633-658-670-061800- MARINE OBSERVATIONS STATION/POSITION TIME TEMP WIND PRES WAVE SWELL AIR SEA DIR/SP/G HT/PER HT/PER (UTC) (F) (DEG/KT/KT) (MB) (FT/S) (FT/S) CHESAPEAKE LIGHT NOT AVBL 64 E VA BEACH 1650 59 60 90/ 19/ 25 1011.8 7/ 8 3/ 8 DUCK 1642 56 54 60/ 16/ 19 1010.9 2 E DUCK NOT AVBL OREGON INLET 1642 59 57 90/ 8/ 11 1010.6 13E OREGON INLT NOT AVBL HATTERAS CG 1642 63 60 110/ 9/ 16 1009.2 DIAMOND BUOY 1650 69 75 120/ 25/ 29 1008.5 7/ 8 3/11 CAPE LOOKOUT 1700 64 80/ 25/ 26 1006.7 BEAUFORT LAB 1642 65 56 100/ 12/ 17 1006.8 30 SE NEW RVR IN 1608 62 70 80/ 16/ 23 1006.9 30 SE NEW RVR IN NOT AVBL 27 SE WRIGHTSVLE 1608 70 69 220/ 16/ 21 1007.0 5 SE WRIGHTSVLE 1608 62 62 90/ 17/ 29 1007.2 225 S CAPE HAT 1650 73 74 170/ 19/ 23 1011.9 6/ 6 2/12 41 SE CHARLESTON 1650 73 74 260/ 17/ 21 1007.1 8/ 7 2/12 $$

USA.gov is the U.S. government's official web portal to all federal, state and local government web resources and services.